Torna al catalogo

SL-8 R/B

AttivoPO
NORAD 8073·ROCKET BODY·🇷🇺 Russia

Lanciato Aug 14, 1975 da Plesetsk Cosmodrome

Loading…

Prossimi Passaggi (prossime 24 ore)

TLE

AggiornatoSource: Space-Track

Epoca: Sep 14, 2026, 15:09 UTC

1 08073U 75074B   26257.63181087  .00000085  00000-0  71199-4 0  9991
2 08073  82.9029 326.6105 0022458  58.3124 105.8371 13.76301724564326

Traccia SL-8 R/B in tempo reale con AllMySat

Download on the App Store